Вернуться в каталог

STARLINK-11397

АктивенСвязьVLEO
NORAD 62590·PAYLOAD·🇺🇸 United States

Запущен Jan 13, 2025 с Cape Canaveral Space Force Station

Loading…

Ближайшие Пролёты (ближайшие 24 часа)

TLE

СвежийSource: CelesTrak SupGP

Эпоха: Sep 15, 2026, 03:36 UTC

1 62590C 25008D   26258.15048611 -.00100480  00000+0 -78018-3 0  2585
2 62590  43.0010  63.6891 0001635 266.2807 205.0950 15.70895079    14

Отслеживайте STARLINK-11397 в реальном времени с AllMySat

Download on the App Store